STARLINK-31008 (58636 NORAD) Tracking and Keplerian Element Data

This shows tracking and keplerian element data for the satellite.

Feedback or suggestion? Click here.




ElementValue
Catalog58636
NameSTARLINK-31008
Epoch Orbit457
Epoch Day13.25002315
Epoch Year2024
RAAN183.8429
Inclination43.0013
Eccentricity0.0001254
Argument of Perigee260.7291
Mean Anonmoly322.5335
Mean Motion15.51114391
Decay Rate-0.019142
L11 58636U 23203U 24013.25002315 -.01914200 00000+0 -35649-1 0 9992
L22 58636 43.0013 183.8429 0001254 260.7291 322.5335 15.51114391 4575



Live tracking and technical data element details for STARLINK-31008 (NORAD 58636). STARLINK-31008 can be tracked NOW for your location showing map with azimuth and elevation plus other details from your city location.







IsCatalogInMostPopularTable: catalog: 58636, numindb: 24
Update: records affected: 1



GetName: 58636 STARLINK-31008

Hit Count: updated at: Wed, 17 Apr 2024 03:02:07 GMT